Location: La Plant
(45.1447°N, 100.6515°W)
Time: 21:17:13
(UTC+00:00)

Envisat - Visible Passes

Search period start: 30 November 2020 00:00
Search period end: 10 December 2020 00:00
Orbit: 764 x 766 km, 98.1° (Epoch: 30 November)

Date Brightness Start Highest point End Pass type
(mag) Time Alt. Az. Time Alt. Az. Time Alt. Az.
30 Nov 4.9 00:32:13 10° SSW 00:36:44 32° W 00:41:16 10° NNW visible
30 Nov 3.2 12:38:12 10° NNE 12:43:19 77° ESE 12:48:24 10° S visible
30 Nov 3.4 23:54:43 10° S 23:59:46 68° WSW 00:04:51 10° NNW visible
01 Dec 4.6 12:01:42 10° NNE 12:06:23 36° E 12:11:01 10° SSE visible
02 Dec 5.8 00:58:50 10° SW 01:02:23 19° W 01:05:58 10° NW visible
02 Dec 5.8 11:25:57 10° NE 11:29:14 17° E 11:32:31 10° SE visible
02 Dec 3.0 13:03:40 10° N 13:08:43 64° WNW 13:13:43 10° SSW visible
03 Dec 4.5 00:20:32 10° SSW 00:25:16 40° W 00:30:03 10° NNW visible
03 Dec 3.6 12:26:51 10° NNE 12:31:55 61° E 12:36:56 10° S visible
03 Dec 3.1 23:43:17 10° SSE 23:48:22 85° WSW 23:53:29 10° NNW visible
04 Dec 6.3 01:27:01 10° W 01:28:09 11° W 01:29:17 10° WNW visible
04 Dec 5.0 11:50:31 10° NE 11:54:55 29° E 11:59:17 10° SSE visible
04 Dec 3.5 13:29:19 10° N 13:34:00 38° WNW 13:38:40 10° SW visible
05 Dec 5.5 00:46:51 10° SW 00:50:53 24° W 00:54:56 10° NW visible
05 Dec 6.1 11:15:15 10° ENE 11:17:43 13° E 11:20:10 10° ESE visible
05 Dec 2.9 12:52:14 10° N 12:57:20 80° WNW 13:02:25 10° SSW visible
06 Dec 4.0 00:08:55 10° S 00:13:50 50° W 00:18:47 10° NNW visible
06 Dec 4.0 12:15:33 10° NNE 12:20:29 48° E 12:25:23 10° S visible
06 Dec 3.0 23:31:55 10° SSE 23:36:59 78° ENE 23:42:05 10° N visible
07 Dec 6.1 01:14:02 10° WSW 01:16:36 14° W 01:19:10 10° WNW visible
07 Dec 5.4 11:39:25 10° NE 11:43:26 23° E 11:47:25 10° SE visible
07 Dec 3.2 13:17:48 10° N 13:22:41 47° WNW 13:27:31 10° SW visible
08 Dec 5.1 00:35:00 10° SSW 00:39:24 29° W 00:43:50 10° NW visible
08 Dec 6.3 11:05:22 10° ENE 11:06:09 10° E 11:06:57 10° E visible
08 Dec 3.1 12:40:50 10° NNE 12:45:57 83° ESE 12:51:02 10° SSW visible
08 Dec 3.6 23:57:23 10° S 00:02:24 63° W 00:07:27 10° NNW visible
09 Dec 4.5 12:04:16 10° NNE 12:09:02 39° E 12:13:46 10° SSE visible
